www.pogodaiklimat.ru

Архив погоды в Зилаире (Башкирия, Россия)

Время
(UTC), дата
00 8.07
03 8.07
06 8.07
09 8.07
12 8.07
15 8.07
18 8.07
21 8.07
00 9.07
03 9.07
06 9.07
09 9.07
12 9.07
15 9.07
18 9.07
21 9.07
00 10.07
03 10.07
06 10.07
09 10.07
12 10.07
15 10.07
18 10.07
21 10.07
00 11.07
03 11.07
06 11.07
09 11.07
12 11.07
15 11.07
18 11.07
21 11.07
00 12.07
03 12.07
06 12.07
09 12.07
12 12.07
15 12.07
18 12.07
21 12.07
00 13.07
03 13.07
06 13.07
09 13.07
12 13.07
15 13.07
18 13.07
21 13.07
00 14.07
03 14.07
06 14.07
09 14.07
12 14.07
15 14.07
18 14.07
21 14.07
Ветер
(напр.,м/с)
Видим. Явления Облачность Т
(С)
Тd
(С)
f
(%)
Тe
(С)
Тes
(С)
Комфортность P
(гПа)
Po
(гПа)
Тmin
(С)
Tmax
(С)
R
(мм)
R24
(мм)
S
(см)
штиль 0 10 км {гроза} 6/0
[Ac lent]
+15.4 +15.3 99 +15 +15 1013.6 951.8
штиль 0 20 км 5/0
[Cs]
+20.2 +17.4 84 +23 +28 комфорт 1012.5 951.8 +15.3
СВ 3 20 км 8/6 600 м
[Cu med, cong Ci fib]
+25.6 +18.5 65 +30 +34 душно 1011.2 951.7
В 1 10 км в посл. час ливневой дождь {гроза} 8/8 600 м
[Cb calv]
+25.8 +18.4 64 +31 +34 очень душно 1011.6 952.1
В 2 20 км {гроза} 8/6 600 м
[Cb calv Ci fib]
+25.4 +16.2 57 +29 +32 душно 1011.3 951.7
Ю 1 10 км гроза без осадков {ливн. дождь} 9/9 600 м
[Cb calv]
+24.3 +15.8 59 +27 +28 жарко 1010.7 950.9 +26.8 0.8
штиль 0 10 км в посл. час гроза {ливн. дождь} 9/9 600 м
[Cb calv]
+18.7 +18.7 100 +20 +20 1012.5 951.5
В 2 10 км {гроза, ливн. дождь} 5/5 600 м
[Cb calv]
+17.8 +16.9 94 +18 +18 1011.8 950.6
В 4 10 км {гроза} 9/9 600 м
[Cb calv]
+17.3 +15.4 89 +17 +17 1011.3 950.0
ЮВ 2 10 км 10/9 600 м
[Sc]
+18.4 +15.3 82 +19 +20 1011.4 950.3 +17.0 5
Ю 1 20 км 8/8 600 м
[Cu med, cong]
+22.2 +16.3 69 +26 +29 душно 1010.5 950.3
Ю 3 20 км 4/4 600 м
[Cu med, cong]
+24.3 +12.6 48 +26 +34 жарко 1010.4 950.5
З 3 20 км 5/4 600 м
[Cu med, cong Ci sp]
+24.4 +11.0 43 +26 +30 жарко 1010.4 950.5
З 2 20 км 5/3 600 м
[Cb calv Ac cast]
+22.5 +9.3 43 +24 +24 комфорт 1011.5 951.1 +25.8
штиль 0 10 км 5/5 600 м
[Cu Sc]
+13.5 +12.1 91 +13 +13 1014.0 951.7
штиль 0 10 км 3/0
[Ac lent]
+11.7 +10.4 92 +11 +11 1014.4 951.7
В 5 10 км 3/0
[Ac lent]
+15.8 +14.3 91 +15 +15 1013.0 951.3
В 6 {11} 20 км 9/8 600 м
[Cu Sc Ci sp]
+18.4 +13.7 74 +18 +19 1012.4 951.2 +10.6
В 6-10 {13} 20 км гроза без осадков {ливн. дождь} 9/9 600 м
[Cb cap]
+17.2 +15.7 91 +16 +17 1012.3 951.0
В 6-12 {13} 20 км гроза без осадков {ливн. дождь} 9/9 600 м
[Cb calv]
+23.0 +14.4 58 +27 +27 душно 1010.9 950.8
С 2 {12} 10 км гроза, ливневой дождь 10/10 600 м
[Cb cap]
+15.1 +15.1 100 +15 +15 1014.4 952.5
СЗ 1 10 км гроза без осадков {ливн. дождь} 10/10 300 м
[Cb cap]
+16.5 +16.5 100 +17 +17 1013.0 951.5 +23.0 42
С 3 {10} 10 км в посл. час ливневой дождь {гроза} 10/10 300 м
[Cb calv]
+15.4 +15.4 100 +15 +15 1013.8 952.0
С 2 {11} 10 км {ливн. дождь} 10/10 300 м
[Cb calv]
+16.0 +15.6 97 +16 +16 1014.1 952.4
В 6-10 {12} 10 км в посл. час ливневой дождь 10/10 300 м
[Cb calv]
+16.0 +14.5 91 +15 +15 1012.7 951.1
В 4 {10} 10 км 8/4 300 м
[Cb calv Ac und]
+18.7 +14.8 78 +19 +20 1011.1 950.1 +15.1 27
СВ 5 {11} 20 км 8/4 600 м
[Sc Ac trans]
+22.5 +16.0 67 +27 +29 душно 1010.4 950.2
СВ 4 20 км 8/6 600 м
[Sc Cs]
+24.6 +14.7 54 +27 +31 жарко 1008.8 949.1
СВ 2 20 км 8/8 600 м
[Cb calv Ci fib]
+25.3 +13.2 47 +27 +29 жарко 1015.2 949.1
ЮВ 4 10 км 9/9 600 м
[Cb calv]
+21.4 +13.0 59 +24 +24 комфорт 1008.2 947.9 +26.1
С 2 4000 м слаб. ливневой дождь {гроза} 10/10 600 м
[Cb cap]
+16.5 +16.2 98 +17 +17 1008.3 947.1
СВ 4 10 км {гроза, ливн. дождь} 10/10 600 м
[Cb calv]
+16.5 +14.1 86 +16 +16 1005.4 944.3
штиль 0 10 км гроза без осадков 10/10 600 м
[Cb calv]
+14.8 +14.8 100 +14 +14 1004.5 943.1
штиль 0 10 км {гроза, ливн. дождь} 10/8 600 м
[Cb calv Ac trans]
+15.9 +15.4 97 +16 +16 1003.2 942.1 +14.7 3
СВ 2 {11} 10 км ливневой дождь 10/10 600 м
[Cb cap]
+13.1 +12.5 96 +12 +12 1003.8 942.1
С 2 10 км слаб. ливневой дождь 10/10 600 м
[Cb cap]
+14.5 +14.2 98 +14 +14 1000.9 939.7
С 3 10 км в посл. час ливневой дождь 10/10 600 м
[Cb cap]
+16.0 +15.4 96 +15 +15 998.8 938.0
С 5 {11} 10 км {ливн. дождь} 9/9 600 м
[Cb calv]
+17.5 +15.1 86 +17 +17 996.4 936.1 +18.0 16
СВ 5 {11} 4000 м в посл. час ливневой дождь 10/10 600 м
[Cb calv]
+16.3 +14.8 91 +15 +15 996.9 936.3
СВ 5 {11} 4000 м в посл. час ливневой дождь 10/10 600 м
[Cb cap]
+16.5 +15.8 96 +16 +16 995.9 935.4
СВ 5 {11} 4000 м слаб. ливневой дождь 10/10 600 м
[Cb cap]
+17.1 +16.0 93 +16 +16 996.1 936.1
СВ 6-10 {14} 10 км {ливн. дождь} 10/10 600 м
[Cb calv]
+17.6 +15.4 87 +17 +17 997.4 937.0 +15.8 19
СВ 6-11 {13} 20 км {ливн. дождь} 8/8 300 м
[Cb calv]
+19.7 +16.0 79 +22 +23 комфорт 998.2 938.2
СВ 7-12 {12} 20 км гроза без осадков 8/8 300 м
[Cb calv]
+20.1 +16.7 81 +22 +23 комфорт 999.1 939.2
СВ 5 {16} 20 км {гроза, ливн. дождь} 9/9 600 м
[Cb calv]
+21.6 +16.1 71 +25 +26 комфорт 1000.0 940.3
СВ 3 {11} 10 км {ливн. дождь} 10/3 600 м
[Cb calv Ac trans Ci sp]
+19.7 +15.5 77 +22 +22 комфорт 1001.2 941.0 +22.1 1
СВ 4 10 км {ливн. дождь} 8/6 600 м
[Cb calv Ac lent]
+16.8 +14.8 88 +16 +16 1003.1 942.2
СВ 6-12 {12} 10 км 8/8 600 м
[Sc]
+17.6 +15.1 85 +17 +17 1002.9 942.2
СВ 7-11 {12} 10 км 8/8 600 м
[Cu Sc]
+17.2 +14.3 83 +16 +16 1003.1 942.3
СВ 6-12 {13} 10 км 10/8 600 м
[Frnb Ac lent]
+18.7 +15.9 84 +19 +19 1004.1 943.6 +16.6 0.5
СВ 6-10 {12} 20 км 9/9 600 м
[Cb calv]
+19.7 +16.7 83 +22 +22 комфорт 1005.5 945.1
СВ 5 {12} 20 км 9/9 600 м
[Cb calv]
+20.6 +16.8 79 +24 +25 комфорт 1006.1 945.8
СВ 5 {11} 20 км 8/8 600 м
[Cu Sc]
+21.8 +17.5 77 +26 +27 душно 1005.8 945.8
СВ 4 {11} 20 км гроза без осадков 9/9 600 м
[Cb cap]
+19.2 +14.7 75 +21 +21 комфорт 1006.9 946.3 +22.3
СВ 5 {11} 4000 м гроза, ливневой дождь 10/10 300 м
[Cb cap]
+17.0 +15.5 91 +16 +16 1008.3 947.2
СВ 5 10 км 4/4 300 м
[Cb calv]
+17.6 +16.4 93 +17 +17 1007.7 946.7
Местоположение метеостанции Зилаир (Башкирия, Россия): широта 52.22 долгота 57.40 высота над уровнем моря 521 м.
В архиве по умолчанию представлена погода в Зилаире за последнюю неделю. Архивные данные за месяц целиком и за предыдущие месяцы, начиная с января 2011 года, Вы можете получить, выбрав интересующий диапазон дат из раскрывающегося списка и нажав кнопку "Найти!".
*Определитесь, кто Вы:
Внимание! Время в таблицах - всемирное. Для получения местного времени необходимо прибавить поправку, которая равна 5 ч.
Некоторые строки с данными для отдельных станций могут быть выделены курсивом. Это означает, что фактические данные отсутствуют по различным причинам, а приведенные значения являются расчетными модельными данными для данного пункта наблюдений.
Смотрите также архив погоды в соседних городах и на ближайших метеорологических станциях:
Партнеры нашего сайта:      
Пояснения к столбцам:
  • Ветер - указаны скорость ветра в м/с - средняя за 10 мин, порывы в срок и между сроками (в фигурных скобках) и направление, откуда дует ветер: С - северный,
  • СВ - северо-восточный, В - восточный, ЮВ - юго-восточный, Ю - южный, ЮЗ - юго-западный, З - западный, СЗ - северо-западный.
  • Видимость - горизонтальная дальность видимости в метрах или километрах. При видимости от 1 до 10 км при отсутствии осадков обычно наблюдается дымка, при ухудшении видимости до 1 км и менее - туман. В сухую погоду видимость может ухудшаться дымом, пылью или мглою.
  • Явления - указаны атмосферные явления, наблюдавшиеся в срок или в последний час перед сроком; фигурными скобками обозначены явления, наблюдавшиеся между сроками (за 1-3 часа до срока); квадратными скобками обозначены град или гололедные отложения с указанием их диаметра в мм.
  • Облачность - указаны через наклонную черту общая и нижняя облачность в баллах и высота нижней границы облаков в метрах; квадратными скобками обозначены формы облаков: Ci - перистые, Cs - перисто-слоистые, Cc - перисто-кучевые, Ac - высококучевые, As - высокослоистые, Sc - слоисто-кучевые, Ns - слоисто-дождевые, Cu - кучевые, Cb - кучево-дождевые. Подробнее классификацию облаков см. в Атласе облаков (PDF).
  • T - Температура воздуха - температура, измеренная на высоте 2 м над землей.
  • Td - Температура точки росы - температура, при понижении до которой содержащийся в воздухе водяной пар достигнет насыщения.
  • f - Относительная влажность воздуха - влажноcть воздуха, измеренная на высоте 2 м над землей.
  • Te - Эффективная температура - температура, которую ощущает одетый по сезону человек в тени. Характеристика душности погоды. При расчете учитывается влияние влажности воздуха и скорости ветра на теплоощущения человека.
  • Tes - Эффективная температура на солнце - температура, которую ощущает человек, с поправкой на солнечный нагрев. Характеристика знойности погоды. Зависит от высоты солнца над горизонтом, облачности и скорости ветра. Ночью, в пасмурную погоду, а также при ветре 12 м/с и более поправка равна нулю.
  • P - Атмосферное давление - приведенное к уровню моря атмосферное давление.
  • Po - Атмосферное давление - измеренное на уровне метеостанции атмосферное давление.
  • Tmin - Минимальная температура - минимум температуры воздуха на высоте 2 м над землей.
  • Tmax - Максимальная температура - максимум температуры воздуха на высоте 2 м над землей.
  • R - Количество осадков - Количество выпавших осадков за период времени, мм. При наведении курсора мыши на число - период времени, за который выпало указанное количество осадков.
  • R24 - Количество осадков - Количество выпавших осадков за 24 часа, мм.
  • S - Снежный покров - Высота снежного покрова, см. При наведении курсора мыши на число - состояние снежного покрова и степень покрытия местности в баллах.